Weather History for KSOW - July, 2013

Change the Weather History Date:

Tuesday, July 30, 2013

  Actual Average Record
Temperature  
Mean Temperature 68 °F -  
Max Temperature 84 °F 80 °F 92 °F (1978)
Min Temperature 53 °F 62 °F 52 °F (1975)
Cooling Degree Days 4    
Growing Degree Days 18 (Base 50)    
Moisture  
Dew Point 44 °F    
Average Humidity 42    
Maximum Humidity 72    
Minimum Humidity 21    
Precipitation  
Precipitation 0.00 in - - ()
Sea Level Pressure  
Sea Level Pressure 30.39 in    
Wind  
Wind Speed 3 mph (SW)    
Max Wind Speed 8 mph    
Max Gust Speed 26 mph    
Visibility 10 miles    
Events      
Averages and records for this station are not official NWS values.
T = Trace of Precipitation, MM = Missing Value Source: NWS Daily Summary

Daily Weather History Graph

Daily Weather History Graph

Search for Another Location

Airport or City:

Trip Planner

Search our weather history database for the weather conditions in past years. The results will help you decide how hot, cold, wet, or windy it might be!

Date:

Astronomy

Jul. 30, 2013 Rise Set
Actual Time 5:29 AM MST 7:22 PM MST
Civil Twilight 5:02 AM MST 7:50 PM MST
Nautical Twilight 4:28 AM MST 8:23 PM MST
Astronomical Twilight 3:52 AM MST 8:59 PM MST
Moon No Moon Rise 1:46 PM MST (7/30)
Length of Visible Light 14h 48m
Length of Day
13h 53m
Last Quarter, 40% of the Moon is Illuminated
Jul 30
Last Quarter
Aug 6
New
Aug 14
First Quarter
Aug 20
Full
Aug 28
Last Quarter

Hourly Weather History & Observations

Time (MST) Temp. Dew Point Humidity Pressure Visibility Wind Dir Wind Speed Gust Speed Precip Events Conditions
12:15 AM 62.6 °F 42.8 °F 48% 30.37 in 10.0 mi South 4.6 mph - N/A   Clear
12:35 AM 62.6 °F 42.8 °F 48% 30.37 in 10.0 mi South 4.6 mph - N/A   Clear
12:55 AM 59.0 °F 44.6 °F 59% 30.38 in 10.0 mi Calm Calm - N/A   Clear
1:15 AM 59.0 °F 44.6 °F 59% 30.38 in 10.0 mi Calm Calm - N/A   Clear
1:35 AM 57.2 °F 44.6 °F 63% 30.38 in 10.0 mi Calm Calm - N/A   Clear
1:55 AM 59.0 °F 42.8 °F 55% 30.37 in 10.0 mi SSW 3.5 mph - N/A   Clear
2:15 AM 57.2 °F 44.6 °F 63% 30.37 in 10.0 mi SSW 3.5 mph - N/A   Clear
2:35 AM 57.2 °F 44.6 °F 63% 30.37 in 10.0 mi South 8.1 mph - N/A   Clear
2:55 AM 57.2 °F 44.6 °F 63% 30.37 in 10.0 mi South 3.5 mph - N/A   Clear
3:15 AM 55.4 °F 44.6 °F 67% 30.37 in 10.0 mi Calm Calm - N/A   Clear
3:35 AM 57.2 °F 44.6 °F 63% 30.37 in 9.0 mi Calm Calm - N/A   Clear
3:55 AM 55.4 °F 44.6 °F 67% 30.38 in 10.0 mi Calm Calm - N/A   Clear
4:15 AM 55.4 °F 44.6 °F 67% 30.38 in 10.0 mi South 4.6 mph - N/A   Clear
4:35 AM 55.4 °F 44.6 °F 67% 30.39 in 10.0 mi Calm Calm - N/A   Clear
4:55 AM 53.6 °F 44.6 °F 72% 30.39 in 10.0 mi Calm Calm - N/A   Clear
5:15 AM 55.4 °F 44.6 °F 67% 30.40 in 10.0 mi Calm Calm - N/A   Clear
5:35 AM 53.6 °F 44.6 °F 72% 30.41 in 9.0 mi South 4.6 mph - N/A   Clear
5:55 AM 55.4 °F 44.6 °F 67% 30.42 in 10.0 mi South 3.5 mph - N/A   Clear
6:15 AM 55.4 °F 46.4 °F 72% 30.42 in 8.0 mi Calm Calm - N/A   Clear
6:35 AM 59.0 °F 48.2 °F 67% 30.42 in 10.0 mi Calm Calm - N/A   Clear
6:55 AM 62.6 °F 48.2 °F 59% 30.43 in 10.0 mi Calm Calm - N/A   Clear
7:15 AM 66.2 °F 48.2 °F 52% 30.44 in 10.0 mi East 3.5 mph - N/A   Clear
7:35 AM 68.0 °F 44.6 °F 43% 30.44 in 10.0 mi ENE 3.5 mph - N/A   Clear
7:55 AM 68.0 °F 44.6 °F 43% 30.45 in 10.0 mi NE 4.6 mph - N/A   Clear
8:15 AM 69.8 °F 42.8 °F 38% 30.45 in 10.0 mi East 3.5 mph - N/A   Clear
8:35 AM 71.6 °F 44.6 °F 38% 30.45 in 10.0 mi NE 6.9 mph - N/A   Clear
8:55 AM 73.4 °F 44.6 °F 36% 30.45 in 10.0 mi NNE 4.6 mph - N/A   Clear
9:15 AM 73.4 °F 44.6 °F 36% 30.45 in 10.0 mi North 6.9 mph - N/A   Clear
9:55 AM 75.2 °F 44.6 °F 34% 30.45 in 10.0 mi North 4.6 mph - N/A   Clear
10:15 AM 77.0 °F 44.6 °F 32% 30.45 in 10.0 mi NNE 3.5 mph - N/A   Clear
10:35 AM 77.0 °F 42.8 °F 29% 30.45 in 10.0 mi NNE 6.9 mph - N/A   Clear
11:15 AM 77.0 °F 42.8 °F 29% 30.44 in 10.0 mi Calm Calm - N/A   Clear
11:35 AM 77.0 °F 42.8 °F 29% 30.43 in 10.0 mi WNW 3.5 mph - N/A   Clear
11:55 AM 77.0 °F 41.0 °F 28% 30.43 in 10.0 mi West 5.8 mph - N/A   Clear
12:15 PM 80.6 °F 42.8 °F 26% 30.43 in 10.0 mi NNW 6.9 mph - N/A   Clear
12:35 PM 80.6 °F 41.0 °F 24% 30.42 in 10.0 mi NW 8.1 mph - N/A   Clear
12:55 PM 80.6 °F 41.0 °F 24% 30.42 in 10.0 mi Calm Calm - N/A   Clear
1:15 PM 80.6 °F 41.0 °F 24% 30.41 in 10.0 mi NNW 6.9 mph - N/A   Clear
1:35 PM 82.4 °F 41.0 °F 23% 30.40 in 10.0 mi WNW 6.9 mph 26.5 mph N/A   Clear
1:55 PM 82.4 °F 41.0 °F 23% 30.40 in 10.0 mi WSW 6.9 mph - N/A   Partly Cloudy
2:15 PM 82.4 °F 41.0 °F 23% 30.39 in 10.0 mi WSW 5.8 mph - N/A   Scattered Clouds
2:35 PM 84.2 °F 41.0 °F 22% 30.38 in 10.0 mi SSW 4.6 mph - N/A   Scattered Clouds
2:55 PM 82.4 °F 39.2 °F 21% 30.38 in 10.0 mi North 5.8 mph - N/A   Clear
3:15 PM 82.4 °F 41.0 °F 23% 30.37 in 10.0 mi West 8.1 mph - N/A   Partly Cloudy
3:35 PM 82.4 °F 41.0 °F 23% 30.37 in 10.0 mi Calm Calm - N/A   Partly Cloudy
3:55 PM 82.4 °F 41.0 °F 23% 30.36 in 10.0 mi West 4.6 mph - N/A   Clear
4:15 PM 80.6 °F 39.2 °F 23% 30.36 in 10.0 mi Calm Calm - N/A   Clear
4:35 PM 80.6 °F 39.2 °F 23% 30.35 in 10.0 mi Calm Calm - N/A   Clear
4:55 PM 80.6 °F 41.0 °F 24% 30.35 in 10.0 mi NNW 3.5 mph - N/A   Clear
5:15 PM 80.6 °F 41.0 °F 24% 30.35 in 10.0 mi NW 5.8 mph - N/A   Clear
5:35 PM 80.6 °F 39.2 °F 23% 30.34 in 10.0 mi Calm Calm - N/A   Clear
5:55 PM 82.4 °F 39.2 °F 21% 30.34 in 10.0 mi Calm Calm - N/A   Clear
6:15 PM 82.4 °F 39.2 °F 21% 30.34 in 10.0 mi Calm Calm - N/A   Clear
6:35 PM 80.6 °F 41.0 °F 24% 30.35 in 10.0 mi Calm Calm - N/A   Mostly Cloudy
6:55 PM 78.8 °F 44.6 °F 30% 30.35 in 10.0 mi WSW 3.5 mph - N/A   Overcast
7:15 PM 78.8 °F 46.4 °F 32% 30.36 in 10.0 mi Calm Calm - N/A   Overcast
7:35 PM 78.8 °F 41.0 °F 26% 30.36 in 10.0 mi Calm Calm - N/A   Overcast
7:55 PM 77.0 °F 46.4 °F 34% 30.36 in 10.0 mi Calm Calm - N/A   Overcast
8:15 PM 75.2 °F 50.0 °F 41% 30.37 in 10.0 mi SSE 5.8 mph - N/A   Mostly Cloudy
8:35 PM 73.4 °F 50.0 °F 44% 30.38 in 10.0 mi South 3.5 mph - N/A   Mostly Cloudy
8:55 PM 71.6 °F 50.0 °F 46% 30.38 in 9.0 mi SSW 3.5 mph - N/A   Mostly Cloudy
9:15 PM 71.6 °F 50.0 °F 46% 30.39 in 10.0 mi South 5.8 mph - N/A   Mostly Cloudy
9:35 PM 71.6 °F 50.0 °F 46% 30.39 in 10.0 mi South 4.6 mph - N/A   Partly Cloudy
9:55 PM 68.0 °F 50.0 °F 52% 30.40 in 9.0 mi Calm Calm - N/A   Mostly Cloudy
10:15 PM 69.8 °F 50.0 °F 49% 30.40 in 10.0 mi Calm Calm - N/A   Scattered Clouds
10:35 PM 68.0 °F 50.0 °F 52% 30.40 in 10.0 mi Calm Calm - N/A   Clear
10:55 PM 66.2 °F 48.2 °F 52% 30.40 in 10.0 mi South 3.5 mph - N/A   Clear
11:15 PM 66.2 °F 48.2 °F 52% 30.40 in 10.0 mi Calm Calm - N/A   Clear
11:55 PM 64.4 °F 48.2 °F 56% 30.40 in 10.0 mi Calm Calm - N/A   Clear